Weather History for KACY - January, 2014

Change the Weather History Date:

Monday, January 6, 2014

  Actual Average Record
Temperature  
Mean Temperature 36 °F 33 °F  
Max Temperature 56 °F 42 °F 72 °F (2007)
Min Temperature 16 °F 25 °F 4 °F (1981)
Degree Days  
Heating Degree Days 29 32  
Month to date heating degree days 229 190  
Since 1 July heating degree days 2029 1959  
Cooling Degree Days 0 0  
Month to date cooling degree days 0 0  
Year to date cooling degree days 0 0  
Moisture  
Dew Point 42 °F    
Average Humidity 71    
Maximum Humidity 100    
Minimum Humidity 41    
Precipitation  
Precipitation 0.43 in 0.11 in 2.47 in (1962)
Month to date precipitation 1.16 0.64  
Year to date precipitation 1.16 0.64  
Snow  
Snow T in 0.10 in 7.30 in (1979)
Month to date snowfall 6.5 0.7  
Since 1 July snowfall 9.8 4.6  
Snow Depth 0.00 in    
Sea Level Pressure  
Sea Level Pressure 29.62 in    
Wind  
Wind Speed 17 mph (WSW)    
Max Wind Speed 33 mph    
Max Gust Speed 40 mph    
Visibility 6 miles    
Events Fog , Rain    
T = Trace of Precipitation, MM = Missing Value Source: NWS Daily Summary

Daily Weather History Graph

Daily Weather History Graph

Search for Another Location

Airport or City:

Trip Planner

Search our weather history database for the weather conditions in past years. The results will help you decide how hot, cold, wet, or windy it might be!

Date:

Astronomy

Jan. 06, 2014 Rise Set
Actual Time 7:18 AM EST 4:49 PM EST
Civil Twilight 6:48 AM EST 5:19 PM EST
Nautical Twilight 6:15 AM EST 5:53 PM EST
Astronomical Twilight 5:42 AM EST 6:25 PM EST
Moon 10:34 AM EST (1/6) 11:18 PM EST (1/6)
Length of Visible Light 10h 30m
Length of Day
9h 31m
Waxing Crescent, 34% of the Moon is Illuminated
Jan 6
Waxing Crescent
Jan 7
First Quarter
Jan 15
Full
Jan 24
Last Quarter
Jan 30
New

Hourly Weather History & Observations

Time (EST) Temp. Windchill Dew Point Humidity Pressure Visibility Wind Dir Wind Speed Gust Speed Precip Events Conditions
12:42 AM 55.9 °F - 55.0 °F 97% 29.73 in 10.0 mi South 18.4 mph 29.9 mph 0.05 in Rain Light Rain
12:54 AM 55.0 °F - 55.0 °F 100% 29.73 in 8.0 mi South 19.6 mph 34.5 mph 0.05 in   Overcast
1:10 AM 54.0 °F - 54.0 °F 100% 29.73 in 1.8 mi SSW 17.3 mph 29.9 mph 0.02 in   Overcast
1:17 AM 54.0 °F - 54.0 °F 100% 29.72 in 0.1 mi South 19.6 mph 26.5 mph 0.02 in   Overcast
1:45 AM 54.0 °F - 54.0 °F 100% 29.71 in 5.0 mi South 15.0 mph 26.5 mph 0.02 in   Overcast
1:54 AM 55.0 °F - 55.0 °F 100% 29.70 in 4.0 mi SSW 16.1 mph - 0.02 in   Overcast
2:38 AM 54.0 °F - 54.0 °F 100% 29.68 in 1.8 mi South 11.5 mph 19.6 mph N/A   Overcast
2:45 AM 54.0 °F - 54.0 °F 100% 29.68 in 0.8 mi South 11.5 mph 21.9 mph N/A   Overcast
2:54 AM 54.0 °F - 54.0 °F 100% 29.68 in 0.5 mi SSW 12.7 mph - N/A Fog Fog
3:34 AM 54.0 °F - 54.0 °F 100% 29.63 in 1.5 mi South 18.4 mph 26.5 mph 0.04 in Rain Light Rain
3:38 AM 54.0 °F - 54.0 °F 100% 29.63 in 3.0 mi South 20.7 mph 28.8 mph 0.04 in Rain Light Rain
3:54 AM 55.0 °F - 55.0 °F 100% 29.61 in 2.5 mi South 18.4 mph 29.9 mph 0.07 in   Overcast
3:59 AM 55.9 °F - 55.0 °F 97% 29.61 in 1.2 mi South 19.6 mph 29.9 mph N/A   Overcast
4:09 AM 55.0 °F - 55.0 °F 100% 29.60 in 0.5 mi South 19.6 mph 28.8 mph N/A Fog Fog
4:54 AM 53.1 °F - 53.1 °F 100% 29.58 in 0.5 mi SSW 16.1 mph - 0.01 in Fog Fog
5:54 AM 54.0 °F - 54.0 °F 100% 29.55 in 0.5 mi SSW 17.3 mph 27.6 mph N/A Fog Fog
6:54 AM 54.0 °F - 54.0 °F 100% 29.51 in 0.5 mi South 17.3 mph 27.6 mph 0.00 in Rain Light Rain
7:29 AM 53.1 °F - 53.1 °F 100% 29.50 in 3.0 mi South 15.0 mph 23.0 mph 0.10 in Rain Light Rain
7:54 AM 52.0 °F - 52.0 °F 100% 29.49 in 2.5 mi South 15.0 mph 25.3 mph 0.10 in   Overcast
8:15 AM 52.0 °F - 52.0 °F 100% 29.49 in 4.0 mi South 16.1 mph 24.2 mph N/A   Overcast
8:54 AM 53.1 °F - 53.1 °F 100% 29.49 in 8.0 mi South 17.3 mph 24.2 mph 0.01 in   Overcast
9:11 AM 51.1 °F - 50.0 °F 96% 29.53 in 2.0 mi West 21.9 mph 33.4 mph 0.03 in Rain Rain
9:20 AM 51.1 °F - 48.9 °F 92% 29.54 in 3.0 mi West 17.3 mph 26.5 mph 0.05 in Rain Rain
9:25 AM 50.0 °F - 48.9 °F 96% 29.54 in 2.5 mi West 12.7 mph 24.2 mph 0.06 in Rain Rain
9:31 AM 50.0 °F - 48.9 °F 96% 29.54 in 3.0 mi West 12.7 mph 19.6 mph 0.08 in Rain Rain
9:43 AM 50.0 °F - 48.9 °F 96% 29.55 in 8.0 mi WNW 18.4 mph 24.2 mph 0.08 in Rain Light Rain
9:54 AM 50.0 °F - 48.0 °F 93% 29.55 in 10.0 mi West 17.3 mph 23.0 mph 0.08 in   Overcast
10:01 AM 48.0 °F - 45.0 °F 89% 29.55 in 10.0 mi WNW 17.3 mph 24.2 mph 0.00 in Rain Light Rain
10:54 AM 46.9 °F - 44.1 °F 90% 29.55 in 10.0 mi West 8.1 mph - 0.00 in Rain Light Rain
11:54 AM 45.0 °F 38.9 °F 42.1 °F 90% 29.52 in 7.0 mi West 12.7 mph 20.7 mph 0.03 in Rain Light Rain
12:22 PM 44.1 °F 35.0 °F 41.0 °F 89% 29.54 in 4.0 mi WNW 24.2 mph 31.1 mph 0.00 in Rain Light Rain
12:54 PM 41.0 °F 32.2 °F 37.9 °F 89% 29.55 in 5.0 mi WNW 18.4 mph 31.1 mph 0.02 in Rain Light Rain
1:54 PM 37.0 °F 28.1 °F 35.1 °F 93% 29.57 in 7.0 mi West 15.0 mph 26.5 mph 0.01 in Rain Light Rain
2:01 PM 36.0 °F 26.0 °F 34.0 °F 93% 29.57 in 6.0 mi WNW 17.3 mph 27.6 mph 0.01 in Rain Light Rain
2:35 PM 35.1 °F 27.4 °F 34.0 °F 96% 29.58 in 10.0 mi West 10.4 mph - 0.03 in   Overcast
2:54 PM 36.0 °F 28.5 °F 33.1 °F 89% 29.58 in 10.0 mi WNW 10.4 mph - 0.03 in   Overcast
3:54 PM 37.0 °F 27.4 °F 28.0 °F 70% 29.59 in 10.0 mi WNW 17.3 mph - N/A   Mostly Cloudy
4:54 PM 34.0 °F 22.7 °F 21.9 °F 61% 29.62 in 10.0 mi WNW 19.6 mph 25.3 mph N/A   Clear
5:54 PM 33.1 °F 21.5 °F 19.0 °F 56% 29.66 in 10.0 mi WNW 19.6 mph 25.3 mph N/A   Clear
6:54 PM 32.0 °F 19.8 °F 16.0 °F 52% 29.71 in 10.0 mi WNW 20.7 mph 29.9 mph N/A   Clear
7:54 PM 30.9 °F 20.2 °F 16.0 °F 54% 29.74 in 10.0 mi WNW 15.0 mph 28.8 mph N/A   Partly Cloudy
8:54 PM 30.0 °F 19.1 °F 16.0 °F 56% 29.74 in 10.0 mi WNW 15.0 mph - N/A   Clear
9:54 PM 26.1 °F 10.1 °F 9.0 °F 49% 29.79 in 10.0 mi WNW 27.6 mph 36.8 mph N/A   Overcast
10:54 PM 21.0 °F 4.3 °F 1.0 °F 42% 29.83 in 10.0 mi West 24.2 mph 34.5 mph N/A   Mostly Cloudy
11:54 PM 16.0 °F -2.8 °F -2.9 °F 43% 29.89 in 10.0 mi WNW 25.3 mph 35.7 mph N/A   Clear